Regional Weather Roundup
Issued by NWS

Home | Current Version | Previous Version | Text Only | Print | Product List | Glossary Off
Versions: 1 2 3 4 5 6 7 8 9 10 11 12 13 14 15 16 17 18 19 20 21 22 23 24 25 26 27 28 29 30 31 32 33 34 35 36 37 38 39 40 41 42 43 44 45 46 47 48 49 50

000
ASUS43 KBIS 061610
RWRND

NORTH DAKOTA REGIONAL WEATHER ROUNDUP
NATIONAL WEATHER SERVICE BISMARCK ND
1100 AM CDT MON JUL 06 2015

NOTE: "FAIR" INDICATES FEW OR NO CLOUDS BELOW 12,000 FEET WITH NO
SIGNIFICANT WEATHER AND/OR OBSTRUCTIONS TO VISIBILITY.


NDZ001>003-009>011-017-061700-
NORTHWEST NORTH DAKOTA

CITY           SKY/WX    TMP DP  RH WIND       PRES   REMARKS
WILLISTON      PTSUNNY   65  49  56 N5        30.20R
MINOT          CLOUDY    58  51  78 N8        30.16S SMOKE
MINOT AFB      CLOUDY    58  56  91 NE7       30.16S
$$

NDZ018>021-031>035-040>046-061700-
SOUTHWEST NORTH DAKOTA

CITY           SKY/WX    TMP DP  RH WIND       PRES   REMARKS
BISMARCK       CLOUDY    67  54  63 NW8       30.15S HAZE
DICKINSON      MOSUNNY   65  51  60 NW6       30.18R
GARRISON         N/A     63  52  67 NW5       30.15S
HETTINGER ARPT MOSUNNY   66  50  56 N7        30.21R
$$

NDZ004>008-012>016-024-026-027-054-061700-
NORTHEAST NORTH DAKOTA

CITY           SKY/WX    TMP DP  RH WIND       PRES   REMARKS
GRAND FORKS    FAIR      62  49  62 N16       30.10R
GRND FRKS AFB  FAIR      61  47  60 N14       30.10S
DEVILS LAKE    CLOUDY    59  48  67 N10       30.13R
$$

NDZ022-023-025-028>030-036>039-047>053-061700-
SOUTHEAST NORTH DAKOTA

CITY           SKY/WX    TMP DP  RH WIND       PRES   REMARKS
FARGO          FAIR      63  47  55 N26G32    30.06R
JAMESTOWN      FAIR      63  51  65 NE10      30.10F
$$




USA.gov is the U.S. government's official web portal to all federal, state and local government web resources and services.